FW3611 Weather Reports


Display with metric or nautical units.
time (UTC)temp
F
wind
direction
speed
MPH
gust
MPH
rain 1hr
in
rain 24hr
in
rain mn
in
humidity
%
barometer
mb
20260903040952 78 141 0.0 0.0 0.00 0.00 0.00 85 1017.5
20260903040451 78 141 0.0 0.0 0.00 0.00 0.00 85 1017.6
20260903035947 78 141 0.0 0.0 0.00 0.00 0.00 85 1017.5
20260903035442 78 141 0.0 0.0 0.00 0.00 0.00 84 1017.5
20260903034938 78 141 0.0 0.0 0.00 0.00 0.00 84 1017.6
20260903034441 78 141 0.0 0.0 0.00 0.00 0.00 84 1017.7
20260903033938 79 141 0.0 0.0 0.00 0.00 0.00 83 1017.6
20260903032437 79 141 0.0 0.0 0.00 0.00 0.00 82 1017.6
20260903031937 79 141 0.0 0.0 0.00 0.00 0.00 82 1017.6
20260903030938 80 141 0.0 0.0 0.00 0.00 0.00 81 1017.7
20260903030438 80 141 0.0 0.0 0.00 0.00 0.00 80 1017.6
20260903025932 80 141 0.0 0.0 0.00 0.00 0.00 80 1017.5
20260903025433 80 141 0.0 0.0 0.00 0.00 0.00 80 1017.6
20260903024930 80 141 0.0 0.0 0.00 0.00 0.00 79 1017.6
20260903024435 80 141 0.0 0.0 0.00 0.00 0.00 79 1017.6
20260903023939 81 141 0.0 0.0 0.00 0.00 0.00 78 1017.7
20260903023433 81 141 0.0 0.0 0.00 0.00 0.00 78 1017.7
20260903022929 81 141 0.0 0.0 0.00 0.00 0.00 78 1017.7
20260903022431 81 141 0.0 0.0 0.00 0.00 0.00 77 1017.7
20260903021930 81 141 0.0 0.0 0.00 0.00 0.00 77 1017.7
20260903021429 81 141 0.0 0.0 0.00 0.00 0.00 76 1017.7
20260903020931 82 141 0.0 0.0 0.00 0.00 0.00 76 1017.8
20260903020427 82 141 0.0 0.0 0.00 0.00 0.00 76 1017.7
20260903015927 82 141 0.0 0.0 0.00 0.00 0.00 75 1017.7
20260903015428 82 141 0.0 0.0 0.00 0.00 0.00 75 1017.7
20260903013927 83 141 0.0 0.0 0.00 0.00 0.00 73 1017.5
20260903013427 83 141 0.0 0.0 0.00 0.00 0.00 73 1017.4
20260903012928 83 141 0.0 0.0 0.00 0.00 0.00 72 1017.4
20260903012421 83 141 0.0 2.0 0.00 0.00 0.00 72 1017.2
20260903011927 84 141 0.0 2.0 0.00 0.00 0.00 72 1017.2
20260903011419 84 141 0.0 2.0 0.00 0.00 0.00 71 1017.1
20260903010924 84 141 1.0 2.0 0.00 0.00 0.00 71 1017.0
20260903010424 84 141 1.0 2.0 0.00 0.00 0.00 71 1017.0
20260903005922 85 141 1.0 3.0 0.00 0.00 0.00 70 1017.0
20260903004922 85 135 0.0 2.0 0.00 0.00 0.00 71 1016.9
20260903004422 85 135 1.0 2.0 0.00 0.00 0.00 71 1016.9
20260903003922 85 135 1.0 2.0 0.00 0.00 0.00 70 1016.8
20260903003419 86 135 0.0 2.0 0.00 0.00 0.00 70 1016.9
20260903001911 86 135 1.0 3.0 0.00 0.00 0.00 69 1016.8
20260903000903 87 149 1.0 5.0 0.00 0.00 0.00 68 1016.7
20260903000402 87 149 1.0 5.0 0.00 0.00 0.00 67 1016.7
20260902235902 88 154 1.0 5.0 0.00 0.00 0.00 67 1016.7
20260902235403 88 154 2.0 5.0 0.00 0.00 0.00 66 1016.6
20260902234901 89 154 2.0 6.0 0.00 0.00 0.00 65 1016.6
20260902234401 89 91 1.0 6.0 0.00 0.00 0.00 64 1016.5
20260902233901 90 112 0.0 3.0 0.00 0.00 0.00 63 1016.5
20260902233400 90 112 0.0 4.0 0.00 0.00 0.00 62 1016.4
20260902232900 91 112 1.0 4.0 0.00 0.00 0.00 61 1016.4
20260902232359 91 89 1.0 4.0 0.00 0.00 0.00 59 1016.4
20260902231902 91 332 1.0 4.0 0.00 0.00 0.00 58 1016.3
20260902231401 92 89 2.0 3.0 0.00 0.00 0.00 57 1016.3
20260902230857 92 89 1.0 6.0 0.00 0.00 0.00 56 1016.2
20260902230351 92 89 1.0 6.0 0.00 0.00 0.00 55 1016.2
20260902225852 92 123 1.0 4.0 0.00 0.00 0.00 55 1016.2
20260902225348 93 123 2.0 5.0 0.00 0.00 0.00 54 1016.2
20260902224844 93 72 3.0 7.0 0.00 0.00 0.00 54 1016.2
20260902224343 93 72 2.0 7.0 0.00 0.00 0.00 53 1016.3
20260902223841 93 91 3.0 10.0 0.00 0.00 0.00 53 1016.2
20260902223340 93 99 4.0 11.0 0.00 0.00 0.00 54 1016.2
20260902222339 94 69 2.0 8.0 0.00 0.00 0.00 53 1016.3
20260902221843 94 102 3.0 9.0 0.00 0.00 0.00 53 1016.3
20260902221346 94 77 4.0 9.0 0.00 0.00 0.00 53 1016.3
20260902220335 94 70 5.0 11.0 0.00 0.00 0.00 55 1016.3
20260902215834 94 57 4.0 11.0 0.00 0.00 0.00 53 1016.3
20260902215342 94 77 3.0 11.0 0.00 0.00 0.00 53 1016.3
20260902214834 94 89 3.0 8.0 0.00 0.00 0.00 53 1016.3
20260902214341 94 75 4.0 9.0 0.00 0.00 0.00 53 1016.3
20260902213831 94 77 5.0 10.0 0.00 0.00 0.00 52 1016.2
20260902213327 94 74 5.0 10.0 0.00 0.00 0.00 54 1016.2
20260902212311 94 60 5.0 11.0 0.00 0.00 0.00 52 1016.4
20260902211310 93 56 3.0 8.0 0.00 0.00 0.00 55 1016.4
20260902210815 93 75 3.0 8.0 0.00 0.00 0.00 54 1016.5
20260902210313 94 67 3.0 8.0 0.00 0.00 0.00 53 1016.5
20260902205808 94 65 3.0 7.0 0.00 0.00 0.00 53 1016.4
20260902205301 93 66 5.0 10.0 0.00 0.00 0.00 54 1016.5
20260902204801 93 58 5.0 10.0 0.00 0.00 0.00 50 1016.5
20260902204301 94 73 3.0 10.0 0.00 0.00 0.00 51 1016.5
20260902203802 94 69 5.0 13.0 0.00 0.00 0.00 51 1016.5
20260902203303 94 64 6.0 13.0 0.00 0.00 0.00 52 1016.6
20260902202802 95 66 4.0 12.0 0.00 0.00 0.00 55 1016.6
20260902202306 94 54 5.0 12.0 0.00 0.00 0.00 52 1016.6
20260902201801 94 49 5.0 10.0 0.00 0.00 0.00 53 1016.7
20260902201301 94 79 5.0 10.0 0.00 0.00 0.00 51 1016.7
20260902200301 94 47 4.0 10.0 0.00 0.00 0.00 50 1016.9
20260902195801 94 73 5.0 10.0 0.00 0.00 0.00 53 1016.9
20260902194805 94 50 5.0 12.0 0.00 0.00 0.00 52 1017.0
20260902194305 94 60 3.0 11.0 0.00 0.00 0.00 54 1017.1
20260902193302 94 82 6.0 12.0 0.00 0.00 0.00 53 1017.2
20260902192801 94 67 5.0 13.0 0.00 0.00 0.00 53 1017.3
20260902192306 94 46 3.0 13.0 0.00 0.00 0.00 50 1017.2
20260902190801 94 25 6.0 12.0 0.00 0.00 0.00 52 1017.2
20260902190301 93 45 5.0 12.0 0.00 0.00 0.00 55 1017.4
20260902185301 93 87 6.0 12.0 0.00 0.00 0.00 56 1017.4
20260902184800 92 48 6.0 12.0 0.00 0.00 0.00 53 1017.4
20260902184258 92 52 6.0 11.0 0.00 0.00 0.00 54 1017.5
20260902183758 93 70 5.0 14.0 0.00 0.00 0.00 51 1017.5
20260902183257 93 65 4.0 14.0 0.00 0.00 0.00 51 1017.6
20260902181257 93 67 5.0 12.0 0.00 0.00 0.00 51 1017.7
20260902180802 92 50 4.0 12.0 0.00 0.00 0.00 52 1017.7
20260902180304 93 77 4.0 11.0 0.00 0.00 0.00 55 1017.8
20260902175258 92 72 4.0 9.0 0.00 0.00 0.00 54 1017.8
20260902174752 93 62 4.0 9.0 0.00 0.00 0.00 54 1017.9
20260902174251 93 18 3.0 9.0 0.00 0.00 0.00 53 1017.9
20260902173751 93 71 3.0 8.0 0.00 0.00 0.00 52 1018.0
20260902173249 92 17 3.0 8.0 0.00 0.00 0.00 55 1018.1
20260902172750 92 21 3.0 9.0 0.00 0.00 0.00 53 1018.2
20260902172251 91 12 3.0 9.0 0.00 0.00 0.00 56 1018.3
20260902171748 92 62 2.0 6.0 0.00 0.00 0.00 54 1018.3
20260902171246 92 57 2.0 7.0 0.00 0.00 0.00 56 1018.5
20260902170242 92 97 3.0 12.0 0.00 0.00 0.00 56 1018.7
20260902165743 91 83 3.0 7.0 0.00 0.00 0.00 58 1018.7
20260902165241 91 77 3.0 7.0 0.00 0.00 0.00 58 1018.8
20260902164744 91 107 3.0 9.0 0.00 0.00 0.00 59 1018.8
20260902164241 90 71 3.0 9.0 0.00 0.00 0.00 60 1018.9
20260902163742 90 51 3.0 11.0 0.00 0.00 0.00 58 1019.0
20260902163239 90 38 5.0 11.0 0.00 0.00 0.00 60 1019.0
20260902162741 90 33 4.0 10.0 0.00 0.00 0.00 64 1019.0
20260902162237 91 82 3.0 8.0 0.00 0.00 0.00 61 1019.1
20260902161736 90 72 3.0 13.0 0.00 0.00 0.00 63 1019.2
20260902161236 89 28 3.0 13.0 0.00 0.00 0.00 63 1019.2
20260902160733 89 64 3.0 10.0 0.00 0.00 0.00 67 1019.2
20260902160235 89 64 3.0 10.0 0.00 0.00 0.00 69 1019.4
20260902155234 87 72 4.0 9.0 0.00 0.00 0.00 71 1019.4
20260902154733 88 40 3.0 8.0 0.00 0.00 0.00 69 1019.5
20260902154232 88 60 3.0 8.0 0.00 0.00 0.00 73 1019.6
20260902153738 87 54 3.0 7.0 0.00 0.00 0.00 71 1019.5
20260902153237 87 72 3.0 8.0 0.00 0.00 0.00 70 1019.6
20260902152738 87 67 3.0 8.0 0.00 0.00 0.00 73 1019.6
20260902152233 87 80 3.0 7.0 0.00 0.00 0.00 74 1019.5
20260902151731 86 40 3.0 6.0 0.00 0.00 0.00 77 1019.5
20260902151240 86 346 2.0 5.0 0.00 0.00 0.00 75 1019.5
20260902150743 87 45 2.0 5.0 0.00 0.00 0.00 76 1019.5
20260902150243 87 29 3.0 8.0 0.00 0.00 0.00 75 1019.5
20260902145742 86 26 2.0 8.0 0.00 0.00 0.00 77 1019.5
20260902145237 85 25 2.0 5.0 0.00 0.00 0.00 78 1019.5
20260902144237 85 60 3.0 6.0 0.00 0.00 0.00 80 1019.4
20260902143231 84 53 3.0 8.0 0.00 0.00 0.00 82 1019.5
20260902142733 84 42 3.0 7.0 0.00 0.00 0.00 82 1019.5
20260902142233 83 33 4.0 7.0 0.00 0.00 0.00 83 1019.4
20260902141731 83 58 3.0 6.0 0.00 0.00 0.00 86 1019.4
20260902141232 82 7 3.0 6.0 0.00 0.00 0.00 88 1019.4
20260902140231 81 56 3.0 5.0 0.00 0.00 0.00 92 1019.4
20260902135732 81 58 3.0 5.0 0.00 0.00 0.00 94 1019.5
20260902135231 80 16 3.0 6.0 0.00 0.00 0.00 95 1019.4
20260902134731 80 16 2.0 6.0 0.00 0.00 0.00 95 1019.4
20260902134231 80 66 2.0 5.0 0.00 0.00 0.00 96 1019.4
20260902133731 80 82 2.0 4.0 0.00 0.00 0.00 96 1019.5
20260902133231 79 82 2.0 6.0 0.00 0.00 0.00 96 1019.5
20260902131732 79 83 2.0 3.0 0.00 0.00 0.00 96 1019.5
20260902131233 78 83 2.0 4.0 0.00 0.00 0.00 96 1019.5
20260902130730 78 83 2.0 6.0 0.00 0.00 0.00 96 1019.5
20260902125731 78 82 2.0 4.0 0.00 0.00 0.00 96 1019.4
20260902125232 78 87 2.0 4.0 0.00 0.00 0.00 96 1019.4
20260902124730 78 87 3.0 6.0 0.00 0.00 0.00 96 1019.4
20260902124230 78 87 2.0 6.0 0.00 0.00 0.00 96 1019.4
20260902123733 78 87 2.0 6.0 0.00 0.00 0.00 96 1019.3
20260902123232 78 87 2.0 4.0 0.00 0.00 0.00 96 1019.2
20260902122214 77 87 2.0 4.0 0.00 0.00 0.00 96 1019.2
20260902121707 77 87 1.0 3.0 0.00 0.00 0.00 96 1019.2
20260902121153 77 87 2.0 4.0 0.00 0.00 0.00 96 1019.2
20260902120145 77 137 2.0 3.0 0.00 0.00 0.00 96 1019.3
20260902115642 77 137 1.0 3.0 0.00 0.00 0.00 96 1019.2
20260902114646 76 137 1.0 2.0 0.00 0.00 0.00 96 1019.2
20260902113147 76 136 1.0 3.0 0.00 0.00 0.00 96 1018.9
20260902112645 76 137 1.0 2.0 0.00 0.00 0.00 96 1018.8
20260902112141 76 137 1.0 2.0 0.00 0.00 0.00 96 1018.9
20260902111642 76 137 1.0 2.0 0.00 0.00 0.00 96 1018.9
20260902111139 76 137 0.0 2.0 0.00 0.00 0.00 96 1018.8
20260902110637 75 137 0.0 1.0 0.00 0.00 0.00 96 1018.8
20260902110138 75 137 0.0 1.0 0.00 0.00 0.00 96 1018.8
20260902105634 75 137 0.0 2.0 0.00 0.00 0.00 95 1018.8
20260902104636 75 137 0.0 2.0 0.00 0.00 0.00 95 1018.6
20260902104127 75 137 0.0 1.0 0.00 0.00 0.00 95 1018.6
20260902103617 75 137 0.0 1.0 0.00 0.00 0.00 95 1018.5
20260902103117 74 137 0.0 1.0 0.00 0.00 0.00 95 1018.5
20260902102614 74 137 0.0 2.0 0.00 0.00 0.00 95 1018.5
20260902102114 74 137 0.0 2.0 0.00 0.00 0.00 95 1018.5
20260902101611 74 137 0.0 0.0 0.00 0.00 0.00 95 1018.5
20260902101115 74 137 0.0 0.0 0.00 0.00 0.00 95 1018.4
20260902100613 74 137 0.0 0.0 0.00 0.00 0.00 95 1018.4
20260902100130 74 137 0.0 0.0 0.00 0.00 0.00 95 1018.4
20260902095613 74 137 0.0 0.0 0.00 0.00 0.00 95 1018.3
20260902095107 74 137 0.0 0.0 0.00 0.00 0.00 95 1018.2
20260902094104 74 137 0.0 0.0 0.00 0.00 0.00 95 1018.2
20260902093602 75 137 0.0 0.0 0.00 0.00 0.00 95 1018.2
20260902092601 74 137 0.0 0.0 0.00 0.00 0.00 95 1018.2
20260902092102 74 137 0.0 2.0 0.00 0.00 0.00 95 1018.2
20260902091100 74 137 0.0 1.0 0.00 0.00 0.00 95 1018.0
20260902090605 74 137 0.0 1.0 0.00 0.00 0.00 95 1018.0
20260902085602 74 137 0.0 1.0 0.00 0.00 0.00 95 1018.0
20260902085106 74 137 0.0 1.0 0.00 0.00 0.00 95 1018.0
20260902084607 75 137 0.0 0.0 0.00 0.00 0.00 95 1018.0
20260902084104 75 137 0.0 0.0 0.00 0.00 0.00 95 1017.9
20260902083604 75 137 0.0 0.0 0.00 0.00 0.00 95 1017.9
20260902083100 74 137 0.0 0.0 0.00 0.00 0.00 95 1017.9
20260902082559 75 137 0.0 0.0 0.00 0.00 0.00 94 1017.8
20260902082059 75 137 0.0 0.0 0.00 0.00 0.00 94 1017.9
20260902081059 75 137 0.0 1.0 0.00 0.00 0.00 94 1017.8
20260902080558 75 137 0.0 1.0 0.00 0.00 0.00 95 1017.7
20260902080058 75 137 0.0 0.0 0.00 0.00 0.00 94 1017.7
20260902075601 75 137 0.0 0.0 0.00 0.00 0.00 94 1017.6
20260902075057 75 137 0.0 0.0 0.00 0.00 0.00 94 1017.5
20260902074557 75 137 0.0 0.0 0.00 0.00 0.00 94 1017.6
20260902074054 75 137 0.0 0.0 0.00 0.00 0.00 94 1017.5
20260902073058 75 137 0.0 0.0 0.00 0.00 0.00 94 1017.5
20260902072559 76 137 0.0 0.0 0.00 0.00 0.00 94 1017.5
20260902072100 76 137 0.0 0.0 0.00 0.00 0.00 94 1017.5
20260902071052 76 137 0.0 0.0 0.00 0.00 0.00 94 1017.4
20260902070552 75 137 0.0 0.0 0.00 0.00 0.00 94 1017.5
20260902070048 75 137 0.0 0.0 0.00 0.00 0.00 94 1017.6
20260902064551 76 137 0.0 0.0 0.00 0.00 0.00 94 1017.7
20260902064043 76 137 0.0 0.0 0.00 0.00 0.00 94 1017.7
20260902063544 76 137 0.0 0.0 0.00 0.00 0.00 94 1017.7
20260902063043 76 137 0.0 0.0 0.00 0.00 0.00 94 1017.8
20260902062540 76 137 0.0 0.0 0.00 0.00 0.00 94 1017.8
20260902062041 76 137 0.0 0.0 0.00 0.00 0.00 94 1017.9
20260902061546 76 137 0.0 0.0 0.00 0.00 0.00 94 1017.9
20260902061038 76 137 0.0 0.0 0.00 0.00 0.00 94 1017.9
20260902060537 76 137 0.0 0.0 0.00 0.00 0.00 93 1017.9
20260902060031 76 137 0.0 0.0 0.00 0.00 0.00 93 1018.0
20260902055532 76 137 0.0 0.0 0.00 0.00 0.00 93 1017.9
20260902055028 76 137 0.0 0.0 0.00 0.00 0.00 93 1018.0
20260902054527 76 137 0.0 0.0 0.00 0.00 0.00 93 1018.0
20260902054030 76 137 0.0 0.0 0.00 0.00 0.00 93 1018.1
20260902053530 77 137 0.0 0.0 0.00 0.00 0.00 93 1018.1
20260902053027 77 137 0.0 0.0 0.00 0.00 0.00 93 1018.1
20260902052530 77 137 0.0 0.0 0.00 0.00 0.00 93 1018.1
20260902052026 77 137 0.0 0.0 0.00 0.00 0.00 93 1018.1
20260902050520 77 137 0.0 0.0 0.00 0.00 0.00 92 1018.2
20260902050016 77 137 0.0 0.0 0.00 0.00 0.00 92 1018.2
20260902045517 77 137 0.0 0.0 0.00 0.00 0.00 92 1018.2
20260902044515 77 137 0.0 0.0 0.00 0.00 0.00 92 1018.2
20260902044007 78 137 0.0 0.0 0.00 0.00 0.00 92 1018.3
20260902043510 78 137 0.0 0.0 0.00 0.00 0.00 91 1018.3
20260902042508 78 137 0.0 0.0 0.00 0.00 0.00 91 1018.3
20260902041511 78 137 0.0 1.0 0.00 0.00 0.00 91 1018.3